Printer-friendly version

IAU Minor Planet Center

Minor Planet Center

MPEC 2007-B01 : COMET C/2006 V1 (CATALINA)

The following Minor Planet Electronic Circular may be linked-to from your own Web pages, but must not otherwise be redistributed electronically.


Read MPEC 2007-A54 Read MPEC 2007-B02


M.P.E.C. 2007-B01                                Issued 2007 Jan. 16, 00:22 UT

     The Minor Planet Electronic Circulars contain information on unusual
         minor planets and routine data on comets.  They are published
   on behalf of Commission 20 of the International Astronomical Union by the
          Minor Planet Center, Smithsonian Astrophysical Observatory,
                          Cambridge, MA 02138, U.S.A.

             Prepared using the Tamkin Foundation Computer Network

                              MPC@CFA.HARVARD.EDU
          URL http://cfa-www.harvard.edu/iau/mpc.html  ISSN 1523-6714

                          COMET C/2006 V1 (CATALINA)

Observations:
    CK06V010  C2007 01 06.07408 11 12 33.48 +05 38 52.4          17.4 N EB001213
    CK06V010  C2007 01 06.09632 11 12 33.41 +05 38 46.6          17.6 N EB001213
    CK06V010  C2007 01 06.12844 11 12 33.30 +05 38 37.6          17.7 N EB001213
    CK06V010  C2007 01 13.04569 11 11 47.11 +05 08 18.5          17.2 N EB001J76
    CK06V010  C2007 01 13.05137 11 11 47.04 +05 08 16.8          17.2 N EB001J76
    CK06V010  C2007 01 13.05563 11 11 47.00 +05 08 15.9          17.1 N EB001J76

Observer details:
213 Observatorio Montcabre.  Observer R. Naves.  Measurer M. Campas.  0.30-m
    f/10 Schmidt-Cassegrain + CCD.
J76 La Murta.  Observers S. Pastor, J. A. Reyes.  0.40-m f/6.3
    Schmidt-Cassegrain + CCD.

Orbital elements:
    C/2006 V1 (Catalina)
T 2007 Nov. 26.5338 TT                                  MPC
q   2.674461             (2000.0)            P               Q
z  +0.004019       Peri.  253.4144      -0.5975515      +0.7731646
                   Node   335.7227      -0.3815181      -0.5072329
e   0.989252       Incl.   31.1176      -0.7052490      -0.3806983
From 123 observations 2006 Nov. 11-2007 Jan. 13.

                       (Last issue was M.P.E.C. 2007-A54)

Brian G. Marsden             (C) Copyright 2007 MPC           M.P.E.C. 2007-B01

Read MPEC 2007-A54 Read MPEC 2007-B02


Our Web policy. Index to the CBAT/MPC/ICQ pages.


Valid HTML 4.01!